Location: K�benhavn
(55.6670°N, 12.5830°E)
Time: 20:42:16
(UTC+01:00)

N. Korean satellite - Visible Passes

Search period start: 31 October 2020 00:00
Search period end: 10 November 2020 00:00
Orbit: 452 x 505 km, 97.2° (Epoch: 31 October)

Date Brightness Start Highest point End Pass type
(mag) Time Alt. Az. Time Alt. Az. Time Alt. Az.
31 Oct 9.9 04:40:11 10° ENE 04:41:53 13° E 04:43:35 10° ESE visible
31 Oct 6.4 06:12:16 10° N 06:15:41 69° WNW 06:19:04 10° SSW visible
01 Nov 7.0 05:46:07 10° NNE 05:49:32 61° ESE 05:52:55 10° S visible
01 Nov 10.1 18:03:46 10° WSW 18:05:24 13° W 18:07:02 10° WNW visible
02 Nov 8.4 05:20:08 10° NNE 05:23:16 32° E 05:26:23 10° SSE visible
02 Nov 9.4 17:36:13 10° SW 17:39:00 22° W 17:41:47 10° NW visible
03 Nov 9.5 04:54:28 10° NE 04:56:55 18° E 04:59:22 10° SE visible
03 Nov 6.7 06:27:13 10° N 06:30:31 47° WNW 06:33:50 10° SW visible
03 Nov 8.2 17:09:23 10° S 17:12:42 39° W 17:15:59 10° NNW visible
04 Nov 10.2 04:29:59 10° ENE 04:30:29 10° E 04:30:59 10° E visible
04 Nov 6.4 06:00:57 10° NNE 06:04:24 90° ESE 06:07:51 10° SSW visible
05 Nov 7.6 05:34:52 10° NNE 05:38:12 46° E 05:41:31 10° S visible
05 Nov 9.8 17:51:47 10° SW 17:54:00 16° W 17:56:12 10° NW visible
06 Nov 8.9 05:08:59 10° NE 05:11:53 25° E 05:14:48 10° SSE visible
06 Nov 7.1 06:42:11 10° N 06:45:19 33° WNW 06:48:27 10° SW visible
06 Nov 8.9 17:24:35 10° SSW 17:27:37 27° W 17:30:38 10° NW visible
07 Nov 9.8 04:43:31 10° NE 04:45:29 14° E 04:47:28 10° SE visible
07 Nov 6.4 06:15:49 10° N 06:19:14 62° WNW 06:22:38 10° SSW visible
07 Nov 7.5 16:57:56 10° S 17:01:20 51° W 17:04:43 10° NNW visible
08 Nov 6.8 05:49:37 10° NNE 05:53:04 68° ESE 05:56:30 10° S visible
08 Nov 10.1 18:07:48 10° WSW 18:08:59 11° W 18:10:10 10° WNW visible
09 Nov 8.2 05:23:35 10° NNE 05:26:48 35° E 05:30:00 10° SSE visible
09 Nov 9.5 17:39:56 10° SW 17:42:32 20° W 17:45:09 10° NW visible
